KUIPER-00452

导读 | 豆包AI

KUIPER-00452(NORAD编号68946)是亚马逊柯伊伯(Kuiper)低轨宽带卫星星座的组网卫星。Kuiper项目旨在通过数千颗低轨卫星实现全球范围内高速宽带互联网接入,弥补地面网络覆盖盲区,面向个人、企业及物联网应用提供服务。该卫星配备相控阵天线,支持自适应编码调制与动态波束分配,可实现灵活覆盖与高效干扰协调,属于项目推进阶段发射的组网卫星,助力星座逐步实现商业运营,为全球互联提供空间基础设施支撑。

Basic Information
目录编号:
68946
目录名称:
KUIPER-00452
国际标识:
2026-098AD
轨道中心:
EARTH
卫星名称:
KUIPER-00452
卫星全名:
KUIPER-00452
卫星状态:
在轨 (已飞行25 天)
发射日期:
2026-04-30 UTC
国别 :
美国 (US)
星等 :
--
Orbit Information
数据来源 国际轨道数据 AOE轨道数据
星历时间 2026-05-24T03:19:16+0800
1天前
查看轨道信息
2026-05-23T07:00:00+0800
2天前
查看轨道信息
半长轴 6837.357km 6836.957km
偏心率 0.0005534 0.0004745
轨道倾角 51.874° 51.874°
近地点辐角 60.785° 47.036°
升交点赤经 185.095° 189.181°
平近点角 299.369° 309.398°
近地点 455.436km 455.575km
远地点 463.004km 462.065km
周期 93.776分钟 93.768分钟
每日圈数 15.35573 15.357075
Detailed Information
使用方式:
暂无
2D Orbit Map
3D Orbit Map
Orbit Altitude Analysis Chart
Orbit Inclination Analysis Chart
Orbit Comprehensive Analysis Chart
View Comprehensive Chart